User: anonymous   Login
Location: Unspecified
(0.0000°N, 0.0000°E)
Time: 01:02:56
(UTC+00:00)
Language:

FLTSATCOM F7 - Orbit

View from above orbital plane
View from above orbital plane
View from above satellite
View from above satellite

Ground track
Ground track

The orbit data is extracted from the following two-line orbital elements,

1 17181U 86096A   23081.26263527  .00000025  00000-0  00000+0 0  9990
2 17181  13.6749 347.9076 0038365 306.4959 213.5892  0.98926887140212
Epoch (UTC): 22 March 2023 06:18:11
Eccentricity: 0.0038365
inclination: 13.6749°
perigee height: 36004 km
apogee height: 36331 km
right ascension of ascending node: 347.9076°
argument of perigee: 306.4959°
revolutions per day: 0.98926887
mean anomaly at epoch: 213.5892°
orbit number at epoch: 14021

The dashed part of the orbit path shows where the satellite is in the earth's shadow,  

DLR